Regional Weather Roundup
Issued by NWS

Home | Current Version | Previous Version | Text Only | Print | Product List | Glossary On
Versions: 1 2 3 4 5 6 7 8 9 10 11 12 13 14 15 16 17 18 19 20 21 22 23 24 25 26 27 28 29 30 31 32 33 34 35 36 37 38 39 40 41 42 43 44 45 46 47 48 49 50
000
ASUS42 KTBW 070916
RWRFL
FLORIDA REGIONAL WEATHER ROUNDUP
NATIONAL WEATHER SERVICE TAMPA BAY RUSKIN FL
500 AM EDT THU MAY 07 2015

NOTE: "FAIR" INDICATES FEW OR NO CLOUDS BELOW 12,000 FEET WITH NO
SIGNIFICANT WEATHER AND/OR OBSTRUCTIONS TO VISIBILITY.


FLZ001>010-012>015-112-114-115-071000-
PANHANDLE FLORIDA

CITY           SKY/WX    TMP DP  RH WIND       PRES   REMARKS
PENSACOLA      CLEAR     65  63  93 N5        30.04S
PENSACOLA NAS  CLEAR     61  61 100 CALM      30.04R
MILTON NAS     CLEAR     60  59  96 CALM      30.05S
CRESTVIEW      CLEAR     57  56  96 CALM      30.06S
DUKE FIELD     FAIR      60  56  89 NW2       30.04R
VALPARAISO     CLEAR     63  61  91 NW3       30.03S
MARY ESTHER    CLEAR     62  59  90 CALM      30.03S
PANAMA CITY    CLOUDY    61  59  93 CALM      30.03S FOG
TYNDALL AFB    CLEAR     66  64  94 CALM      30.04S FOG
APALACHICOLA   CLEAR     68  64  87 NE5       30.03S

STATION/POSITION SKY/WX   TEMP    WIND        PRES    WAVE   SWELL
                          AIR SEA DIR/SP/G            HT/PER HT/PER
                          (F)     (DEG/KT/KT) (MB)    (FT/S) (FT/S)
30.1N   87.6W              73 75   80/  4/  4 1016.4S   2/ 6   2/ 6
29.2N   88.2W              74 75  130/  8/  8 1016.8F   3/ 6   3/ 6
28.8N   86.0W              73 75   60/  6/  8 1017.0F   1/ 6   2/ 6
PANAMA CITY BEAC           67 75   10/  3/  4 1016.8F
CAPE SAN BLAS    NOT AVBL
TOWER C                    73     100/  9/ 10 1016.7S
28.5N   84.5W              74 76   60/  8/ 10 1016.4F   1/ 7

$$
FLZ011-016>038-118-127-128-134-139-239-071000-
NORTH FLORIDA

CITY           SKY/WX    TMP DP  RH WIND       PRES   REMARKS
MARIANNA       LGT RAIN  63  61  93 CALM      30.04S
TALLAHASSEE    CLEAR     61  57  87 CALM      30.04F
PERRY          CLEAR     60  60 100 CALM      30.05F
CROSS CITY       N/A     59  57  93 CALM      30.04S
LAKE CITY      FAIR      55  55 100 CALM      30.05S FOG
GAINESVILLE    CLEAR     60  59  96 CALM      30.04S
MAYPORT NAS    PTCLDY    63  61  93 NW5       30.01S
JACKSONVILLE   CLEAR     60  59  96 NW5       30.02S
JAX NAS        PTCLDY    67  61  81 NW7       30.03S
JAX CRAIG      CLEAR     62  60  93 NW5       30.02R
JAX CECIL      CLEAR     57  57 100 CALM      30.03S FOG
FERNANDINA BEA FAIR      64  63  94 NW5       30.01R
ST AUGUSTINE   CLEAR     64  62  93 NW5       30.02S

STATION/POSITION SKY/WX   TEMP    WIND        PRES    WAVE   SWELL
                          AIR SEA DIR/SP/G            HT/PER HT/PER
                          (F)     (DEG/KT/KT) (MB)    (FT/S) (FT/S)
SHELL POINT                70      30/  2/  3   N/A
KEATON BEACH               63      70/  2/  3 1017.4F
CEDAR KEY                  68      40/  6/  7 1017.3F
FERNANDINA                 65 74  330/  5/  6 1015.8F
30.7N   81.3W                 71                N/A     4/ 9   2/11
MAYPORT                    65 73  310/  7/  9 1016.3F
31.4N   80.9W              69 70  360/ 16/ 17 1016.1S   6/10   3/10
ST AUGUSTINE               64 72  280/  5/  6 1017.1R

$$
FLZ040-043>046-052-053-057-058-063-144-071000-
INTERIOR CENTRAL FLORIDA

CITY           SKY/WX    TMP DP  RH WIND       PRES   REMARKS
OCALA          CLEAR     61  57  88 CALM      30.04S
THE VILLAGES     N/A     64  64 100 CALM      29.93S
LEESBURG       CLEAR     66  65  96 N6        30.03F
SANFORD        CLEAR     65  63  93 NW6       30.01S
ORLANDO EXEC   CLEAR     68  65  90 NW5       30.02S
ORLANDO INTL   PTCLDY    68  66  93 NW3       30.02S
WINTER HAVEN   CLEAR     69  66  90 N6        30.03S
LAKELAND       CLEAR     64  64 100 CALM      30.02S
BARTOW         FAIR      64 N/A N/A CALM      30.03R
OKEECHOBEE     CLEAR     63  63 100 CALM      30.01S

$$
FLZ041-047-054-059-064-141-147-071000-
EAST CENTRAL FLORIDA

CITY           SKY/WX    TMP DP  RH WIND       PRES   REMARKS
DAYTONA BEACH  PTCLDY    64  64 100 W5        30.01S
DELAND           N/A     64  64 100 NW3       30.03R
JFK SPACE CTR  CLEAR     67  65  93 W7        29.99S
CAPE CANAVERAL CLEAR     68  67  97 NW7       29.99R
PATRICK AFB    CLEAR     69  67  95 W12       29.99S
MELBOURNE      CLEAR     66  65  96 W6        30.00S
VERO BEACH     CLEAR     67  64  90 NW7       30.00S
FT PIERCE      FOG       65  63  93 CALM      30.00R VSB 1/2
STUART         CLEAR     64  64 100 CALM      30.01R

STATION/POSITION SKY/WX   TEMP    WIND        PRES    WAVE   SWELL
                          AIR SEA DIR/SP/G            HT/PER HT/PER
                          (F)     (DEG/KT/KT) (MB)    (FT/S) (FT/S)
28.5N   80.2W              72 77  300/ 14/ 17 1015.1F
28.9N   78.5W              76 77  290/ 21/ 25 1012.5F
TRIDENT PIER               69 76  290/  7/  8 1016.1F
28.4N   80.5W                 75                N/A     3/10
27.5N   80.2W                 77                N/A     4/ 9   2/11

$$
FLZ050-056-061-142-242-148-248-149-249-151-251-155-255-
160-260-071000-
WEST CENTRAL FLORIDA

CITY           SKY/WX    TMP DP  RH WIND       PRES   REMARKS
CRYSTAL RIVER  FAIR      63  61  94 CALM      30.03S
INVERNESS      FOG      N/A N/A N/A CALM      30.03S VSB 1
BROOKSVILLE    FOG       60  59  96 CALM      30.03F VSB 1/2
CLEARWATER     CLEAR     69  66  90 CALM      30.01S
TAMPA INTL     CLEAR     70  65  84 NE6       30.02S
TAMPA EXEC     CLEAR     68  64  88 CALM      30.02S FOG
PLANT CITY     CLEAR     68  68 100 CALM      30.04S
MACDILL AFB    CLEAR     68  68  99 SE3       30.01S
PETER O KNIGHT CLEAR     72  68  88 NE5       30.01S
ST PETERSBURG  CLEAR     73  67  81 E5        30.00S
SARASOTA       CLEAR     68  66  93 E5        30.00S
VENICE         FAIR      68  66  94 E9        30.01S

STATION/POSITION SKY/WX   TEMP    WIND        PRES    WAVE   SWELL
                          AIR SEA DIR/SP/G            HT/PER HT/PER
                          (F)     (DEG/KT/KT) (MB)    (FT/S) (FT/S)
CEDAR KEY                  68      40/  6/  7 1017.3F
28.5N   84.5W              74 76   60/  8/ 10 1016.4F   1/ 7
27.3N   84.2W                 77                N/A     1/ 4
CLEARWATER BEACH           72 78   80/  4/  6 1016.4F
MIDDLE TAMPA BAY           72     100/  9/ 11 1016.5R
VENICE                     70 79   80/  7/  9 1015.7S

$$
FLZ066-069-070-075>078-162-262-165-265-071000-
SOUTHWEST FLORIDA AND KEYS

CITY           SKY/WX    TMP DP  RH WIND       PRES   REMARKS
PUNTA GORDA    CLEAR     65  65 100 NE6       30.02S
FT MYERS       PTCLDY    69  65  86 E6        29.99S
SOUTHWEST INTL MOCLDY    68  64  87 E7        30.00S
NAPLES         CLEAR     70  66  87 NE6       29.99R
MARCO ISLAND   SUNNY     70  64  83 E6        29.99S
IMMOKALEE      CLOUDY   N/A N/A N/A CALM      30.01S
MARATHON       CLEAR     74  70  87 E3        29.99S
KEY WEST NAS   PTCLDY    74  71  91 NE5       29.99R
KEY WEST INTL  MOCLDY    75  72  90 NE3       29.99S

STATION/POSITION SKY/WX   TEMP    WIND        PRES    WAVE   SWELL
                          AIR SEA DIR/SP/G            HT/PER HT/PER
                          (F)     (DEG/KT/KT) (MB)    (FT/S) (FT/S)
VENICE                     70 79   80/  7/  9 1015.7S
NAPLES                     72 79   80/  5/  7 1015.2F
26.0N   85.6W              77 81   80/  6/  8 1015.3F   2/ 6   2/ 6
DRY TORTUGAS               78     110/  6/  7 1015.2F
NW FL BAY                  78     100/  4/  4 1015.7
SAND KEY                   77     110/  7/  9 1015.2F
SOMBRERO KEY               77      90/  8/  9 1016.0F
LONG KEY                   76 78   70/  7/  7 1016.4R
MOLASSES REEF              77 78   70/  7/  7 1015.7R

$$
FLZ067-068-071>074-168-172>174-071000-
SOUTHEAST FLORIDA

CITY           SKY/WX    TMP DP  RH WIND       PRES   REMARKS
W PALM BEACH   PTCLDY    68  66  93 CALM      30.00F
FT LAUDER-EXEC CLEAR     67  67 100 CALM      30.00S
FT LAUDERDALE  CLEAR     70  68  93 CALM      29.99F
POMPANO BEACH  CLEAR     69  66  90 CALM      30.00S
PEMBROKE PINES CLEAR     69  67  93 CALM      30.01S
OPA LOCKA      CLEAR     70  67  90 CALM      30.00S
MIAMI          CLEAR     70  66  87 CALM      30.00S
WEST KENDALL   CLEAR     66  65  96 CALM      30.00S
HOMESTEAD      CLEAR     69  66  91 CALM      29.99F

STATION/POSITION SKY/WX   TEMP    WIND        PRES    WAVE   SWELL
                          AIR SEA DIR/SP/G            HT/PER HT/PER
                          (F)     (DEG/KT/KT) (MB)    (FT/S) (FT/S)
PORT EVERGLADES            71     320/  4/  5 1015.7S
VIRGINIA KEY                  78   40/  1/  3 1015.3F
LAKE WORTH                 70 78  280/  4/  5 1015.3F
SETTLEMENT POINT           76     280/  4/  5 1016.1S

$$



USA.gov is the U.S. government's official web portal to all federal, state and local government web resources and services.